Weather History for Martinsburg, WV

Change the Weather History Date:

Thursday, January 10, 2013

  Actual Average Record
Temperature  
Mean Temperature 44 °F 31 °F  
Max Temperature 52 °F 39 °F 70 °F (1930)
Min Temperature 35 °F 22 °F -4 °F (1982)
Degree Days  
Heating Degree Days 21 34  
Month to date heating degree days 293 340  
Since 1 July heating degree days 2179 2366  
Cooling Degree Days 0 0  
Month to date cooling degree days 0 0  
Year to date cooling degree days 0 0  
Moisture  
Dew Point 27 °F    
Average Humidity 52    
Maximum Humidity 64    
Minimum Humidity 39    
Precipitation  
Precipitation 0.00 in 0.08 in 0.94 in (1974)
Month to date precipitation 0.00 0.73  
Year to date precipitation 0.00 0.73  
Sea Level Pressure  
Sea Level Pressure 30.52 in    
Wind  
Wind Speed 4 mph (North)    
Max Wind Speed 18 mph    
Max Gust Speed 24 mph    
Visibility 10 miles    
Events      
T = Trace of Precipitation, MM = Missing Value Source: NWS Daily Summary

Daily Weather History Graph

Daily Weather History Graph

Search for Another Location

Airport:

Trip Planner

Search our weather history database for the weather conditions in past years. The results will help you decide how hot, cold, wet, or windy it might be!

Date:

Astronomy

Jan. 10, 2013 Rise Set
Actual Time 7:31 AM EST 5:07 PM EST
Civil Twilight 7:02 AM EST 5:37 PM EST
Nautical Twilight 6:28 AM EST 6:10 PM EST
Astronomical Twilight 5:56 AM EST 6:43 PM EST
Moon 6:09 AM EST (1/10) 4:13 PM EST (1/10)
Length of Visible Light 10h 35m
Length of Day
9h 36m
Waning Crescent, 2% of the Moon is Illuminated
Jan 10
Waning Crescent
Jan 11
New
Jan 18
First Quarter
Jan 26
Full
Feb 3
Last Quarter

Hourly Weather History & Observations

Time (EST) Temp. Windchill Dew Point Humidity Pressure Visibility Wind Dir Wind Speed Gust Speed Precip Events Conditions
12:53 AM 45.0 °F 43.5 °F 27.0 °F 49% 30.43 in 10.0 mi South 3.5 mph - N/A   Clear
1:53 AM 46.0 °F 41.9 °F 26.1 °F 46% 30.45 in 10.0 mi West 8.1 mph - N/A   Clear
2:53 AM 45.0 °F 38.2 °F 25.0 °F 46% 30.46 in 10.0 mi WNW 15.0 mph - N/A   Clear
3:53 AM 43.0 °F 36.4 °F 25.0 °F 49% 30.47 in 10.0 mi WNW 12.7 mph - N/A   Clear
4:53 AM 44.1 °F 38.6 °F 25.0 °F 47% 30.46 in 10.0 mi NW 10.4 mph 18.4 mph N/A   Clear
5:53 AM 43.0 °F 40.3 °F 24.1 °F 47% 30.49 in 10.0 mi Variable 4.6 mph - N/A   Clear
6:53 AM 41.0 °F 37.1 °F 25.0 °F 53% 30.53 in 10.0 mi North 5.8 mph - N/A   Clear
7:53 AM 37.0 °F 34.5 °F 25.0 °F 62% 30.56 in 10.0 mi ESE 3.5 mph - N/A   Clear
8:53 AM 43.0 °F 41.3 °F 26.1 °F 51% 30.59 in 10.0 mi NNW 3.5 mph - N/A   Clear
9:53 AM 45.0 °F 42.6 °F 26.1 °F 48% 30.61 in 10.0 mi NNW 4.6 mph - N/A   Clear
10:53 AM 46.9 °F - 26.1 °F 44% 30.61 in 10.0 mi Calm Calm - N/A   Clear
11:53 AM 48.0 °F - 27.0 °F 44% 30.57 in 10.0 mi WNW 3.5 mph - N/A   Clear
12:53 PM 48.9 °F - 26.1 °F 41% 30.55 in 10.0 mi SE 3.5 mph - N/A   Clear
1:53 PM 50.0 °F - 26.1 °F 39% 30.53 in 10.0 mi NE 3.5 mph - N/A   Clear
2:53 PM 52.0 °F - 28.0 °F 40% 30.51 in 10.0 mi NE 4.6 mph - N/A   Clear
3:53 PM 51.1 °F - 28.9 °F 43% 30.51 in 10.0 mi NE 6.9 mph - N/A   Clear
4:53 PM 46.9 °F - 28.0 °F 48% 30.50 in 10.0 mi East 3.5 mph - N/A   Clear
5:53 PM 45.0 °F - 27.0 °F 49% 30.51 in 10.0 mi Calm Calm - N/A   Clear
6:53 PM 45.0 °F 43.5 °F 28.0 °F 52% 30.52 in 10.0 mi NNE 3.5 mph - N/A   Clear
7:53 PM 44.1 °F 42.5 °F 28.0 °F 53% 30.51 in 10.0 mi North 3.5 mph - N/A   Clear
8:53 PM 41.0 °F - 28.0 °F 60% 30.51 in 10.0 mi Calm Calm - N/A   Clear
9:53 PM 39.9 °F - 28.0 °F 63% 30.51 in 10.0 mi Calm Calm - N/A   Clear
10:53 PM 41.0 °F - 28.0 °F 60% 30.49 in 10.0 mi Calm Calm - N/A   Clear